Weather History for Oceana NAS, VA

Change the Weather History Date:

Tuesday, December 4, 2012

  Actual Average Record
Temperature  
Mean Temperature 62 °F -  
Max Temperature 73 °F 54 °F 75 °F (1998)
Min Temperature 50 °F 37 °F 24 °F (2000)
Degree Days  
Heating Degree Days 4    
Growing Degree Days 12 (Base 50)    
Moisture  
Dew Point 52 °F    
Average Humidity 71    
Maximum Humidity 97    
Minimum Humidity 41    
Precipitation  
Precipitation 0.00 in - - ()
Sea Level Pressure  
Sea Level Pressure 30.23 in    
Wind  
Wind Speed 5 mph (SSW)    
Max Wind Speed 14 mph    
Max Gust Speed 22 mph    
Visibility 9 miles    
Events Fog    
Averages and records for this station are not official NWS values.
T = Trace of Precipitation, MM = Missing Value Source: NWS Daily Summary

Daily Weather History Graph

Daily Weather History Graph

Search for Another Location

Airport:

Trip Planner

Search our weather history database for the weather conditions in past years. The results will help you decide how hot, cold, wet, or windy it might be!

Date:

Astronomy

Dec. 04, 2012 Rise Set
Actual Time 7:01 AM EST 4:47 PM EST
Civil Twilight 6:32 AM EST 5:16 PM EST
Nautical Twilight 6:00 AM EST 5:48 PM EST
Astronomical Twilight 5:29 AM EST 6:19 PM EST
Moon 10:26 PM EST (12/4) 10:59 AM EST (12/4)
Length of Visible Light 10h 43m
Length of Day
9h 46m
Waning Gibbous, 69% of the Moon is Illuminated
Dec 4
Waning Gibbous
Dec 6
Last Quarter
Dec 13
New
Dec 20
First Quarter
Dec 28
Full

Hourly Weather History & Observations

Time (EST) Temp. Dew Point Humidity Pressure Visibility Wind Dir Wind Speed Gust Speed Precip Events Conditions
12:56 AM 54.0 °F 51.1 °F 90% 30.28 in 9.0 mi Calm Calm - N/A   Clear
1:56 AM 54.0 °F 51.1 °F 90% 30.27 in 9.0 mi South 4.6 mph - N/A   Scattered Clouds
2:56 AM 55.0 °F 51.1 °F 86% 30.27 in 10.0 mi SSW 3.5 mph - N/A   Mostly Cloudy
3:56 AM 54.0 °F 50.0 °F 86% 30.26 in 9.0 mi Calm Calm - N/A   Partly Cloudy
4:56 AM 53.1 °F 48.9 °F 86% 30.27 in 8.0 mi SSW 3.5 mph - N/A   Scattered Clouds
5:56 AM 50.0 °F 48.0 °F 93% 30.27 in 6.0 mi Calm Calm - N/A Fog Partly Cloudy
6:56 AM 51.1 °F 48.9 °F 92% 30.29 in 7.0 mi SW 3.5 mph - N/A Fog Patches of Fog
7:56 AM 52.0 °F 51.1 °F 97% 30.29 in 7.0 mi SW 3.5 mph - N/A   Scattered Clouds
8:56 AM 59.0 °F 53.1 °F 81% 30.31 in 10.0 mi SW 6.9 mph - N/A   Scattered Clouds
9:56 AM 64.9 °F 54.0 °F 68% 30.31 in 10.0 mi WSW 5.8 mph - N/A   Scattered Clouds
10:56 AM 69.1 °F 55.0 °F 61% 30.29 in 10.0 mi SW 6.9 mph - N/A   Scattered Clouds
11:56 AM 73.0 °F 53.1 °F 49% 30.26 in 10.0 mi SW 10.4 mph - N/A   Scattered Clouds
12:56 PM 73.0 °F 52.0 °F 48% 30.23 in 10.0 mi WSW 11.5 mph - N/A   Scattered Clouds
1:56 PM 73.9 °F 50.0 °F 43% 30.20 in 10.0 mi WSW 13.8 mph 20.7 mph N/A   Scattered Clouds
2:56 PM 73.9 °F 48.9 °F 41% 30.19 in 10.0 mi WSW 12.7 mph 21.9 mph N/A   Scattered Clouds
3:56 PM 72.0 °F 48.9 °F 44% 30.18 in 10.0 mi SSW 9.2 mph 18.4 mph N/A   Scattered Clouds
4:56 PM 69.1 °F 51.1 °F 53% 30.19 in 10.0 mi South 8.1 mph - N/A   Scattered Clouds
5:56 PM 66.9 °F 52.0 °F 59% 30.19 in 10.0 mi South 6.9 mph - N/A   Partly Cloudy
6:56 PM 63.0 °F 52.0 °F 67% 30.19 in 10.0 mi South 5.8 mph - N/A   Clear
7:56 PM 62.1 °F 52.0 °F 70% 30.19 in 10.0 mi South 9.2 mph - N/A   Clear
8:56 PM 62.1 °F 53.1 °F 72% 30.18 in 10.0 mi SSW 10.4 mph - N/A   Partly Cloudy
9:56 PM 61.0 °F 54.0 °F 78% 30.17 in 10.0 mi SSW 10.4 mph - N/A   Partly Cloudy
10:56 PM 61.0 °F 54.0 °F 78% 30.16 in 10.0 mi SSW 11.5 mph - N/A   Scattered Clouds
11:56 PM 61.0 °F 55.0 °F 81% 30.15 in 10.0 mi SW 12.7 mph - N/A   Scattered Clouds